Weather History for White Mountain, AK

Change the Weather History Date:

Sunday, April 6, 2014

  Actual Average (PAKK) Record (PAKK)
Temperature  
Mean Temperature 6 °F -  
Max Temperature 12 °F 25 °F 42 °F (2004)
Min Temperature 0 °F 14 °F -9 °F (2005)
Degree Days  
Heating Degree Days 59    
Moisture  
Dew Point -3 °F    
Average Humidity 70    
Maximum Humidity 76    
Minimum Humidity 61    
Precipitation  
Precipitation 0.00 in - - ()
Sea Level Pressure  
Sea Level Pressure 29.85 in    
Wind  
Wind Speed 14 mph (NNW)    
Max Wind Speed 20 mph    
Max Gust Speed 22 mph    
Visibility 10 miles    
Events      
Averages and records for this station are not official NWS values.
T = Trace of Precipitation, MM = Missing Value Source: NWS Daily Summary

Daily Weather History Graph

Daily Weather History Graph

Search for Another Location

Airport:

Trip Planner

Search our weather history database for the weather conditions in past years. The results will help you decide how hot, cold, wet, or windy it might be!

Date:

Astronomy

Apr. 06, 2014 Rise Set
Actual Time 7:51 AM AKDT 10:02 PM AKDT
Civil Twilight 6:58 AM AKDT 10:55 PM AKDT
Nautical Twilight 5:47 AM AKDT 12:07 AM AKDT
Astronomical Twilight 3:52 AM AKDT 2:13 AM AKDT
Moon 11:48 AM AKDT (4/6) 5:23 AM AKDT (4/6)
Length of Visible Light 15h 56m
Length of Day
14h 11m
Waxing Crescent, 45% of the Moon is Illuminated
Apr 6
Waxing Crescent
Apr 7
First Quarter
Apr 14
Full
Apr 21
Last Quarter
Apr 28
New

Hourly Weather History & Observations

Time (AKDT) Temp. Windchill Dew Point Humidity Pressure Visibility Wind Dir Wind Speed Gust Speed Precip Events Conditions
12:58 AM 1.9 °F -16.2 °F -6.0 °F 69% 29.79 in 10.0 mi NNW 13.8 mph - N/A   Clear
1:58 AM -0.0 °F -18.0 °F -6.0 °F 76% 29.80 in 10.0 mi North 12.7 mph - N/A   Clear
2:58 AM 1.0 °F -18.7 °F -6.0 °F 72% 29.80 in 10.0 mi NNW 16.1 mph - N/A   Clear
3:58 AM -0.0 °F -18.7 °F -6.0 °F 76% 29.81 in 10.0 mi North 13.8 mph - N/A   Clear
4:58 AM -0.0 °F -17.1 °F -7.1 °F 72% 29.81 in 10.0 mi NNW 11.5 mph - N/A   Clear
5:58 AM -0.0 °F -19.4 °F -6.0 °F 76% 29.82 in 10.0 mi North 15.0 mph - N/A   Clear
6:58 AM -0.9 °F -21.2 °F -7.1 °F 75% 29.82 in 10.0 mi North 16.1 mph - N/A   Clear
7:58 AM -0.9 °F -20.6 °F -7.1 °F 75% 29.83 in 10.0 mi North 15.0 mph - N/A   Clear
8:58 AM 1.0 °F -16.6 °F -6.0 °F 72% 29.84 in 9.0 mi North 12.7 mph - N/A   Clear
9:58 AM 3.0 °F -16.1 °F -5.1 °F 69% 29.84 in 9.0 mi NNW 16.1 mph - N/A   Clear
10:58 AM 3.9 °F -16.6 °F -4.0 °F 70% 29.85 in 10.0 mi NNW 19.6 mph - N/A   Clear
11:58 AM 7.0 °F -10.4 °F -2.0 °F 67% 29.86 in 9.0 mi NNW 15.0 mph - N/A   Clear
12:58 PM 9.0 °F -7.3 °F -0.9 °F 64% 29.87 in 9.0 mi NW 13.8 mph - N/A   Clear
1:58 PM 10.0 °F -8.1 °F -0.0 °F 64% 29.87 in 8.0 mi NNW 18.4 mph - N/A   Clear
2:58 PM 10.9 °F -4.7 °F 1.0 °F 64% 29.88 in 9.0 mi NNW 13.8 mph - N/A   Clear
3:58 PM 12.0 °F -3.4 °F 1.9 °F 64% 29.88 in 9.0 mi NNW 13.8 mph - N/A   Clear
4:58 PM 12.0 °F -4.0 °F 1.0 °F 61% 29.88 in 9.0 mi NNW 15.0 mph - N/A   Clear
5:58 PM 10.9 °F -4.7 °F 1.0 °F 64% 29.88 in 9.0 mi NNW 13.8 mph - N/A   Clear
6:58 PM 10.0 °F -7.6 °F -0.0 °F 64% 29.88 in 10.0 mi NNW 17.3 mph 21.9 mph N/A   Clear
7:58 PM 9.0 °F -7.3 °F -0.9 °F 64% 29.88 in 9.0 mi NNW 13.8 mph 19.6 mph N/A   Clear
8:58 PM 7.0 °F -9.8 °F -2.0 °F 67% 29.89 in 9.0 mi NNW 13.8 mph - N/A   Clear
9:58 PM 3.9 °F -13.0 °F -2.9 °F 73% 29.90 in 9.0 mi NNW 12.7 mph - N/A   Clear
10:58 PM 1.9 °F -15.5 °F -4.0 °F 76% 29.91 in 10.0 mi North 12.7 mph - N/A   Clear
11:58 PM -0.0 °F -20.1 °F -6.0 °F 76% 29.91 in 10.0 mi NNW 16.1 mph - N/A   Clear